Regional Weather Roundup
Issued by NWS Newport/Morehead, NC

Current Version | Previous Version | Text Only | Print | Product List | Glossary On
Versions: 1 2 3 4 5 6 7 8 9 10 11 12 13 14 15 16 17 18 19 20 21 22 23 24 25 26 27 28 29 30 31 32 33 34 35 36 37 38 39 40 41 42 43 44 45 46 47 48 49 50
000
ASUS42 KMHX 061228
RWRMHX
WEATHER ROUNDUP FOR EASTERN NORTH CAROLINA
NATIONAL WEATHER SERVICE NEWPORT/MOREHEAD CITY NC
700 AM EST FRI MAR 06 2015

NOTE: "FAIR" INDICATES FEW OR NO CLOUDS BELOW 12,000 FEET
WITH NO SIGNIFICANT WEATHER AND/OR OBSTRUCTIONS TO VISIBILITY

NCZ015>017-031-032-045>047-102-103-061300-
NORTH COAST

CITY           SKY/WX    TMP DP  RH WIND       PRES   REMARKS
EDENTON        CLOUDY    26  19  76 N12       30.49R WCI  15
ELIZABETH CITY PTCLDY    25  17  72 N18       30.48R WCI  11
KITTY HAWK     CLOUDY    28  19  70 N14G23    30.43R WCI  16
MANTEO         CLOUDY    27  18  69 N18G36    30.44R WCI  14

$$

NCZ045>047-081-094-103-104-061300-
CENTRAL COAST

CITY           SKY/WX    TMP DP  RH WIND       PRES   REMARKS
FRISCO         CLOUDY    31  24  75 NE15G30   30.39R
SWANQUARTER      N/A     28 N/A N/A VRB15G26  30.39S WCI  17

$$

NCZ095-097-098-100-101-061300-
SOUTHERN COAST

CITY           SKY/WX    TMP DP  RH WIND       PRES   REMARKS
BEAUFORT       CLOUDY    31  26  82 MISG      30.40R
CEDAR ISLAND     N/A    N/A N/A N/A N14G29    30.44S
JACKSONVILLE   CLOUDY    31  22  69 N15       30.42R
PINEY ISLAND     N/A    N/A N/A N/A MISG      30.41R
WILMINGTON     CLOUDY    32  21  64 N17       30.40R


$$

NCZ011>013-027>030-043-044-078>080-089-090>093-098-061300-
COASTAL PLAIN

CITY           SKY/WX    TMP DP  RH WIND       PRES   REMARKS
AHOSKIE        CLEAR     21  11  64 N15       30.51R WCI   8
CLINTON        CLOUDY    31  21  68 N12G18    30.45R
ELIZABETHTOWN  CLOUDY    32  21  65 N6        30.43R
GOLDSBORO      CLOUDY    28  20  71 N17G23    30.45R WCI  15
GREENVILLE     CLOUDY    28  18  64 N15G22    30.48R WCI  17
HAVELOCK       CLOUDY    31  23  72 N15       30.43R
KENANSVILLE    CLOUDY    29  15  56 N15       30.46R WCI  18
KINSTON        CLOUDY    28  12  50 N17       30.46R WCI  16
NEW BERN       CLOUDY    30  21  69 N15G22    30.45R WCI  19
RICHLANDS      CLOUDY    28  16  59 N14G22    30.44R WCI  17
ROCKY MOUNT    CLEAR     23  10  57 N14G21    30.50R WCI  11
WASHINGTON     CLOUDY    27  18  69 N13       30.47R WCI  16
WHITEVILLE     CLOUDY    33  24  69 NE6       30.40R

$$

AMZ130-135-150-152-154-156-158-170-250-252-270-ANZ085-086-088-633-658-670-061300-
MARINE OBSERVATIONS

STATION/POSITION TIME  TEMP    WIND        PRES    WAVE   SWELL
                       AIR SEA DIR/SP/G            HT/PER HT/PER
                 (UTC) (F)     (DEG/KT/KT) (MB)    (FT/S) (FT/S)
CHESAPEAKE LIGHT 1200   23     360/ 24/ 26 1032.5
64 E VA BEACH    1150   33 52   10/ 25/ 29 1028.8   11/ 8
DUCK             1200   27 35   10/ 22/ 28 1029.7
2 E DUCK         1111      35                N/A     9/ 7   2/11
10 NE DUCK       1152      37                N/A    11/ 8   2/11
OREGON INLET     1200   29 39  350/ 19/ 26 1030.1
HATTERAS CG      1200      46   10/ 28/ 33 1029.1
CAPE LOOKOUT     1200           20/ 19/ 24 1028.9
BEAUFORT LAB     1200   32 48   20/ 16/ 21 1028.6
27 SE WRIGHTSVLE NOT AVBL
5 SE WRIGHTSVLE  NOT AVBL
225 S CAPE HAT   1150   66 72   10/ 21/ 25 1020.3    7/ 7   3/11
41 SE CHARLESTON 1150   46 68   20/ 27/ 33 1024.9   11/ 8

$$


USA.gov is the U.S. government's official web portal to all federal, state and local government web resources and services.